Weather History for Pompano Beach, FL

Change the Weather History Date:

Saturday, April 27, 2013

  Actual Average Record
Temperature  
Mean Temperature 77 °F -  
Max Temperature 81 °F 85 °F 95 °F (1988)
Min Temperature 73 °F 67 °F 52 °F (1983)
Cooling Degree Days 12    
Growing Degree Days 27 (Base 50)    
Moisture  
Dew Point 63 °F    
Average Humidity 64    
Maximum Humidity 74    
Minimum Humidity 52    
Precipitation  
Precipitation 0.00 in - - ()
Sea Level Pressure  
Sea Level Pressure 30.15 in    
Wind  
Wind Speed 12 mph (ENE)    
Max Wind Speed 17 mph    
Max Gust Speed 23 mph    
Visibility 10 miles    
Events Rain    
Averages and records for this station are not official NWS values.
T = Trace of Precipitation, MM = Missing Value Source: NWS Daily Summary

Daily Weather History Graph

Daily Weather History Graph

Search for Another Location

Airport:

Trip Planner

Search our weather history database for the weather conditions in past years. The results will help you decide how hot, cold, wet, or windy it might be!

Date:

Astronomy

Apr. 27, 2013 Rise Set
Actual Time 6:46 AM EDT 7:50 PM EDT
Civil Twilight 6:21 AM EDT 8:14 PM EDT
Nautical Twilight 5:53 AM EDT 8:43 PM EDT
Astronomical Twilight 5:24 AM EDT 9:12 PM EDT
Moon 10:07 PM EDT (4/27) 8:11 AM EDT (4/27)
Length of Visible Light 13h 52m
Length of Day
13h 04m
Waning Gibbous, 95% of the Moon is Illuminated
Apr 27
Waning Gibbous
May 2
Last Quarter
May 9
New
May 18
First Quarter
May 25
Full

Hourly Weather History & Observations

Time (EDT) Temp. Heat Index Dew Point Humidity Pressure Visibility Wind Dir Wind Speed Gust Speed Precip Events Conditions
12:53 AM 73.9 °F - 63.0 °F 68% 30.21 in 10.0 mi ENE 12.7 mph - N/A   Partly Cloudy
1:53 AM 73.9 °F - 61.0 °F 64% 30.19 in 10.0 mi ENE 12.7 mph 19.6 mph N/A   Clear
2:53 AM 73.9 °F - 60.1 °F 62% 30.17 in 10.0 mi ENE 12.7 mph - N/A   Clear
3:53 AM 73.0 °F - 60.1 °F 64% 30.16 in 10.0 mi ENE 9.2 mph - N/A   Partly Cloudy
4:53 AM 73.0 °F - 61.0 °F 66% 30.14 in 10.0 mi East 11.5 mph - N/A   Scattered Clouds
5:53 AM 73.0 °F - 60.1 °F 64% 30.13 in 10.0 mi East 8.1 mph - N/A   Partly Cloudy
6:53 AM 73.0 °F - 63.0 °F 71% 30.15 in 10.0 mi East 9.2 mph - N/A   Mostly Cloudy
7:53 AM 75.0 °F - 62.1 °F 64% 30.17 in 10.0 mi ENE 10.4 mph - N/A   Partly Cloudy
8:53 AM 75.9 °F - 61.0 °F 60% 30.18 in 10.0 mi ENE 13.8 mph - N/A   Scattered Clouds
9:53 AM 78.1 °F - 61.0 °F 56% 30.18 in 10.0 mi ENE 13.8 mph 19.6 mph N/A   Scattered Clouds
10:53 AM 78.1 °F - 62.1 °F 58% 30.18 in 10.0 mi East 17.3 mph 20.7 mph N/A   Scattered Clouds
11:53 AM 79.0 °F - 60.1 °F 52% 30.18 in 10.0 mi East 16.1 mph - N/A   Partly Cloudy
12:53 PM 79.0 °F - 62.1 °F 56% 30.18 in 10.0 mi ENE 13.8 mph - N/A   Scattered Clouds
1:53 PM 81.0 °F 82.2 °F 63.0 °F 54% 30.17 in 10.0 mi East 12.7 mph - N/A   Scattered Clouds
2:53 PM 80.1 °F 81.5 °F 63.0 °F 56% 30.15 in 10.0 mi East 10.4 mph - N/A   Partly Cloudy
3:53 PM 80.1 °F 81.5 °F 63.0 °F 56% 30.13 in 10.0 mi East 11.5 mph - N/A   Scattered Clouds
4:53 PM 80.1 °F 81.7 °F 64.0 °F 58% 30.12 in 10.0 mi ENE 10.4 mph - N/A   Mostly Cloudy
5:53 PM 79.0 °F - 64.9 °F 62% 30.11 in 10.0 mi ENE 12.7 mph - N/A   Scattered Clouds
6:53 PM 77.0 °F - 64.9 °F 66% 30.10 in 10.0 mi ENE 11.5 mph - N/A   Scattered Clouds
7:53 PM 75.9 °F - 66.9 °F 74% 30.10 in 10.0 mi ENE 10.4 mph - N/A   Scattered Clouds
8:53 PM 75.9 °F - 66.9 °F 74% 30.12 in 10.0 mi ENE 9.2 mph - N/A   Scattered Clouds
9:30 PM 75.2 °F - 66.2 °F 73% 30.12 in 10.0 mi ENE 15.0 mph 19.6 mph N/A   Mostly Cloudy
9:38 PM 75.2 °F - 66.2 °F 73% 30.12 in 10.0 mi East 15.0 mph 23.0 mph 0.00 in Rain Light Rain
9:53 PM 75.0 °F - 66.0 °F 73% 30.13 in 10.0 mi ENE 15.0 mph - 0.00 in   Mostly Cloudy
10:33 PM 75.2 °F - 64.4 °F 69% 30.13 in 10.0 mi ENE 10.4 mph - N/A   Mostly Cloudy
10:43 PM 75.2 °F - 64.4 °F 69% 30.13 in 10.0 mi ENE 15.0 mph 21.9 mph N/A   Mostly Cloudy
10:53 PM 75.9 °F - 64.0 °F 67% 30.14 in 10.0 mi East 15.0 mph - N/A   Mostly Cloudy
11:53 PM 75.0 °F - 64.0 °F 69% 30.13 in 10.0 mi East 13.8 mph - 0.00 in   Overcast